EW6393 Weather Reports


Display with metric or nautical units.
time (UTC)temp
F
wind
direction
speed
MPH
gust
MPH
rain 1hr
in
rain 24hr
in
rain mn
in
humidity
%
barometer
mb
20260505003113 66 68 5.0 12.0 0.00 0.00 0.00 33 1007.3
20260505002628 66 56 6.0 13.0 0.00 0.00 0.00 33 1007.4
20260505002150 66 63 4.0 15.0 0.00 0.00 0.00 34 1007.4
20260505001612 66 129 7.0 16.0 0.00 0.00 0.00 34 1007.4
20260505001121 66 55 8.0 18.0 0.00 0.00 0.00 34 1007.5
20260505000621 66 84 9.0 18.0 0.00 0.00 0.00 33 1007.6
20260505000129 67 83 9.0 18.0 0.00 0.00 0.00 34 1007.9
20260504235630 67 57 8.0 26.0 0.00 0.00 0.00 35 1007.8
20260504235111 66 113 9.0 26.0 0.00 0.00 0.00 37 1007.8
20260504234639 66 115 11.0 22.0 0.00 0.00 0.00 37 1008.2
20260504234120 66 110 9.0 23.0 0.00 0.00 0.00 36 1008.0
20260504233628 67 63 11.0 23.0 0.00 0.00 0.00 36 1008.0
20260504233148 67 152 10.0 20.0 0.00 0.00 0.00 37 1008.3
20260504232635 67 34 7.0 15.0 0.00 0.00 0.00 38 1008.3
20260504232116 65 83 6.0 22.0 0.00 0.00 0.00 39 1008.3
20260504231644 65 49 8.0 18.0 0.00 0.00 0.00 38 1008.4
20260504231124 65 74 10.0 18.0 0.00 0.00 0.00 38 1008.4
20260504230626 64 71 8.0 14.0 0.00 0.00 0.00 38 1008.4
20260504230134 64 110 6.0 10.0 0.00 0.00 0.00 38 1008.6
20260504225615 63 63 3.0 7.0 0.00 0.00 0.00 42 1008.6
20260504225116 63 92 3.0 6.0 0.00 0.00 0.00 41 1008.6
20260504224625 63 105 3.0 7.0 0.00 0.00 0.00 41 1008.6
20260504224128 63 141 2.0 7.0 0.00 0.00 0.00 40 1008.6
20260504223629 63 130 3.0 9.0 0.00 0.00 0.00 40 1008.5
20260504223112 62 181 4.0 11.0 0.00 0.00 0.00 42 1008.5
20260504222640 63 101 4.0 11.0 0.00 0.00 0.00 42 1008.5
20260504222128 63 135 4.0 15.0 0.00 0.00 0.00 42 1008.3
20260504221629 62 197 8.0 21.0 0.00 0.00 0.00 42 1008.2
20260504221130 64 196 10.0 21.0 0.00 0.00 0.00 43 1008.3
20260504220639 66 139 8.0 15.0 0.00 0.00 0.00 39 1008.1
20260504220120 67 175 5.0 9.0 0.00 0.00 0.00 37 1007.9
20260504215631 67 146 3.0 15.0 0.00 0.00 0.00 33 1007.9
20260504215128 68 165 5.0 15.0 0.00 0.00 0.00 32 1007.9
20260504214629 68 41 4.0 11.0 0.00 0.00 0.00 30 1007.9
20260504214118 69 245 6.0 11.0 0.00 0.00 0.00 29 1007.8
20260504213617 70 199 2.0 9.0 0.00 0.00 0.00 29 1007.8
20260504213131 71 255 2.0 5.0 0.00 0.00 0.00 27 1007.7
20260504212632 71 273 1.0 6.0 0.00 0.00 0.00 27 1007.7
20260504212139 71 275 3.0 6.0 0.00 0.00 0.00 27 1007.7
20260504211619 71 288 3.0 5.0 0.00 0.00 0.00 27 1007.8
20260504211119 71 234 0.0 5.0 0.00 0.00 0.00 29 1007.8
20260504210648 72 285 2.0 5.0 0.00 0.00 0.00 27 1007.9
20260504210134 71 319 0.0 3.0 0.00 0.00 0.00 27 1007.9
20260504205616 71 311 1.0 5.0 0.00 0.00 0.00 28 1008.0
20260504205145 72 285 1.0 4.0 0.00 0.00 0.00 27 1008.1
20260504204641 72 44 2.0 4.0 0.00 0.00 0.00 27 1008.0
20260504204127 72 344 0.0 4.0 0.00 0.00 0.00 26 1008.1
20260504203612 72 30 1.0 4.0 0.00 0.00 0.00 27 1008.0
20260504203156 72 260 1.0 4.0 0.00 0.00 0.00 27 1008.1
20260504202615 72 311 1.0 5.0 0.00 0.00 0.00 27 1008.2
20260504202116 72 266 1.0 5.0 0.00 0.00 0.00 28 1008.3
20260504201624 72 299 1.0 5.0 0.00 0.00 0.00 28 1008.3
20260504201124 72 130 2.0 8.0 0.00 0.00 0.00 26 1008.3
20260504200631 72 333 2.0 8.0 0.00 0.00 0.00 28 1008.4
20260504200112 71 285 4.0 9.0 0.00 0.00 0.00 28 1008.4
20260504195614 71 32 2.0 8.0 0.00 0.00 0.00 28 1008.5
20260504195121 72 291 2.0 6.0 0.00 0.00 0.00 27 1008.5
20260504194622 72 264 4.0 6.0 0.00 0.00 0.00 26 1008.5
20260504194130 72 321 1.0 8.0 0.00 0.00 0.00 26 1008.5
20260504193632 73 9 2.0 8.0 0.00 0.00 0.00 28 1008.6
20260504193119 73 309 1.0 6.0 0.00 0.00 0.00 26 1008.6
20260504192639 74 307 4.0 6.0 0.00 0.00 0.00 25 1008.7
20260504192125 75 158 1.0 5.0 0.00 0.00 0.00 26 1008.6
20260504191626 74 136 2.0 7.0 0.00 0.00 0.00 25 1008.7
20260504191135 74 349 2.0 8.0 0.00 0.00 0.00 23 1008.9
20260504190615 76 309 3.0 8.0 0.00 0.00 0.00 24 1009.0
20260504190140 76 334 4.0 7.0 0.00 0.00 0.00 25 1009.0
20260504185640 76 245 1.0 7.0 0.00 0.00 0.00 27 1009.0
20260504185127 75 267 2.0 7.0 0.00 0.00 0.00 26 1009.0
20260504184628 74 293 1.0 8.0 0.00 0.00 0.00 26 1009.1
20260504184137 73 184 4.0 8.0 0.00 0.00 0.00 26 1009.1
20260504183616 74 156 3.0 7.0 0.00 0.00 0.00 25 1009.2
20260504183117 73 259 2.0 3.0 0.00 0.00 0.00 28 1009.3
20260504182624 74 285 1.0 4.0 0.00 0.00 0.00 25 1009.3
20260504182132 73 205 2.0 5.0 0.00 0.00 0.00 27 1009.4
20260504181611 72 27 1.0 5.0 0.00 0.00 0.00 25 1009.6
20260504181139 73 314 1.0 4.0 0.00 0.00 0.00 27 1009.6
20260504180619 72 309 2.0 7.0 0.00 0.00 0.00 27 1009.7
20260504180126 72 272 1.0 10.0 0.00 0.00 0.00 27 1009.8
20260504175626 72 282 3.0 10.0 0.00 0.00 0.00 29 1009.8
20260504175135 73 288 0.0 5.0 0.00 0.00 0.00 28 1009.7
20260504174636 73 221 1.0 6.0 0.00 0.00 0.00 30 1009.8
20260504174124 73 233 2.0 5.0 0.00 0.00 0.00 31 1009.9
20260504173624 72 262 1.0 5.0 0.00 0.00 0.00 30 1009.9
20260504173125 72 255 2.0 5.0 0.00 0.00 0.00 31 1009.9
20260504172633 71 230 1.0 3.0 0.00 0.00 0.00 30 1010.1
20260504172114 71 260 1.0 5.0 0.00 0.00 0.00 32 1010.1
20260504171616 71 240 2.0 5.0 0.00 0.00 0.00 31 1010.2
20260504171116 70 224 1.0 5.0 0.00 0.00 0.00 31 1010.2
20260504170622 70 303 2.0 5.0 0.00 0.00 0.00 31 1010.2
20260504170122 70 270 1.0 5.0 0.00 0.00 0.00 31 1010.3
20260504160135 66 269 0.0 2.0 0.00 0.00 0.00 32 1010.4
20260504151122 67 240 0.0 1.0 0.00 0.00 0.00 34 1010.8
20260504150629 66 118 1.0 1.0 0.00 0.00 0.00 33 1010.8
20260504150130 66 223 0.0 1.0 0.00 0.00 0.00 34 1010.8
20260504141129 60 86 0.0 0.0 0.00 0.00 0.00 42 1010.9
20260504140617 60 86 0.0 0.0 0.00 0.00 0.00 44 1010.8
20260504140125 59 86 0.0 0.0 0.00 0.00 0.00 44 1010.8
20260504120110 56 133 1.0 2.0 0.00 0.00 0.00 38 1010.7
20260504110634 56 317 0.0 1.0 0.00 0.00 0.00 37 1010.6
20260504110136 57 318 0.0 1.0 0.00 0.00 0.00 36 1010.5
20260504100113 58 64 0.0 1.0 0.00 0.00 0.00 34 1010.3
20260504090122 60 322 0.0 2.0 0.00 0.00 0.00 30 1009.8
20260504081641 58 96 4.0 13.0 0.00 0.00 0.00 29 1010.3
20260504081121 60 139 1.0 3.0 0.00 0.00 0.00 29 1010.2
20260504080621 60 58 0.0 2.0 0.00 0.00 0.00 26 1009.7
20260504080130 59 62 0.0 1.0 0.00 0.00 0.00 27 1009.6
20260504070129 60 159 0.0 2.0 0.00 0.00 0.00 27 1009.8
20260504060129 62 255 0.0 2.0 0.00 0.00 0.00 24 1009.9
20260504050645 61 90 1.0 2.0 0.00 0.00 0.00 27 1010.4
20260504050126 61 98 1.0 2.0 0.00 0.00 0.00 28 1010.4
20260504045612 61 65 1.0 2.0 0.00 0.00 0.00 29 1010.5
20260504045112 62 70 0.0 1.0 0.00 0.00 0.00 27 1010.6
20260504044620 63 70 0.0 1.0 0.00 0.00 0.00 25 1010.6
20260504044122 63 70 0.0 1.0 0.00 0.00 0.00 24 1010.6
20260504043631 63 70 0.0 2.0 0.00 0.00 0.00 27 1010.6
20260504043112 63 70 1.0 2.0 0.00 0.00 0.00 25 1010.5
20260504042614 63 70 0.0 2.0 0.00 0.00 0.00 25 1010.5
20260504042115 63 150 0.0 1.0 0.00 0.00 0.00 27 1010.5
20260504041623 63 150 0.0 1.0 0.00 0.00 0.00 26 1010.5
20260504041144 64 150 0.0 1.0 0.00 0.00 0.00 25 1010.5
20260504040611 63 150 0.0 1.0 0.00 0.00 0.00 25 1010.6
20260504040158 63 151 0.0 1.0 0.00 0.00 0.00 25 1010.5
20260504035618 64 151 0.0 1.0 0.00 0.00 0.00 25 1010.5
20260504035118 64 150 0.0 2.0 0.00 0.00 0.00 26 1010.5
20260504034627 64 70 0.0 3.0 0.00 0.00 0.00 25 1010.4
20260504034148 64 270 0.0 3.0 0.00 0.00 0.00 25 1010.4
20260504033635 65 301 1.0 2.0 0.00 0.00 0.00 24 1010.4
20260504033137 65 141 0.0 1.0 0.00 0.00 0.00 23 1010.4
20260504032643 65 164 0.0 4.0 0.00 0.00 0.00 23 1010.4
20260504032151 65 164 0.0 4.0 0.00 0.00 0.00 22 1010.4
20260504031630 66 316 0.0 4.0 0.00 0.00 0.00 23 1010.4
20260504031131 66 309 1.0 4.0 0.00 0.00 0.00 22 1010.4
20260504030639 65 345 0.0 2.0 0.00 0.00 0.00 22 1010.4
20260504030119 66 53 0.0 4.0 0.00 0.00 0.00 23 1010.4
20260504025627 66 74 1.0 4.0 0.00 0.00 0.00 21 1010.4
20260504025127 65 53 1.0 2.0 0.00 0.00 0.00 22 1010.3
20260504024629 65 57 1.0 2.0 0.00 0.00 0.00 22 1010.3
20260504024138 65 57 0.0 2.0 0.00 0.00 0.00 24 1010.3
20260504023645 66 86 0.0 0.0 0.00 0.00 0.00 22 1010.3
20260504023125 66 86 0.0 0.0 0.00 0.00 0.00 23 1010.3
20260504022626 67 86 0.0 2.0 0.00 0.00 0.00 22 1010.3
20260504022133 67 75 1.0 2.0 0.00 0.00 0.00 22 1010.3
20260504021635 68 66 0.0 2.0 0.00 0.00 0.00 22 1010.3
20260504021115 68 90 1.0 4.0 0.00 0.00 0.00 21 1010.3
20260504020623 68 56 1.0 4.0 0.00 0.00 0.00 21 1010.3
20260504020124 68 89 1.0 3.0 0.00 0.00 0.00 21 1010.3
20260504015632 69 61 1.0 2.0 0.00 0.00 0.00 22 1010.3
20260504015114 69 80 0.0 1.0 0.00 0.00 0.00 24 1010.3
20260504014615 69 82 0.0 1.0 0.00 0.00 0.00 22 1010.3
20260504014122 69 317 0.0 1.0 0.00 0.00 0.00 22 1010.4
20260504013624 70 316 0.0 0.0 0.00 0.00 0.00 23 1010.5
20260504013152 70 317 0.0 0.0 0.00 0.00 0.00 21 1010.6
20260504012612 71 317 0.0 0.0 0.00 0.00 0.00 21 1010.6
20260504012130 71 316 0.0 0.0 0.00 0.00 0.00 20 1010.6
20260504011638 71 317 0.0 1.0 0.00 0.00 0.00 19 1010.6
20260504011118 72 317 0.0 1.0 0.00 0.00 0.00 19 1010.6
20260504010618 72 311 0.0 1.0 0.00 0.00 0.00 20 1010.7
20260504010126 72 324 0.0 4.0 0.00 0.00 0.00 18 1010.7
20260504005654 72 21 1.0 4.0 0.00 0.00 0.00 18 1010.8
20260504005113 73 296 1.0 3.0 0.00 0.00 0.00 18 1010.8
20260504004613 73 314 1.0 6.0 0.00 0.00 0.00 17 1010.9
20260504004121 73 295 3.0 6.0 0.00 0.00 0.00 16 1010.9
20260504003621 73 293 1.0 5.0 0.00 0.00 0.00 18 1010.9